APRIZESAT 3

导读

APRIZESAT 3是美国发射的一颗技术实验卫星,于2009年7月29日成功送入太空。作为私营航天领域的早期尝试,它主要用于验证新型空间技术与小型卫星平台性能,测试相关通信、姿态控制等关键航天技术。该卫星的发射为后续小型商用卫星的发展积累了宝贵的飞行经验,推动了民营航天技术的迭代发展。

基本信息
目录编号:
35686
目录名称:
APRIZESAT 3
国际标识:
2009-041F
轨道中心:
EARTH
卫星名称:
APRIZESAT 3
卫星全名:
--
卫星状态:
在轨 (已飞行6254 天)
发射日期:
2009-07-29 UTC
国别 :
美国 (US)
星等 :
--
该卫星已列入 空间交会检测服务 Space Conjunction Data Service (SCDS) ,当前飞行风险评估等级: 高风险
轨道信息
数据来源 国际轨道数据
星历时间: 2026-09-12T08:44:16+0800
11小时前
查看轨道信息
半长轴: 6956.03km
偏心率: 0.0062061
轨道倾角: 98.218°
近地点辐角 139.629°
升交点赤经 52.492°
平近点角 220.956°
近地点: 534.723km
远地点: 621.063km
周期: 96.228分钟
每日圈数: 14.964445
详细信息
使用方式:
暂无
2D轨道图
3D轨道图
轨道高度分析图
轨道倾角分析图
轨道综合分析图
查看轨道综合分析图
交会数据列表
事件ID 空间交会对象 最接近时刻(TCA) 交会距离 交会风险概率(CRP) 交会风险指数(CRI) 操作
CDM_260914-173103-568605-634621
2026-09-14T
17:31:02+0000
0.461 km
远距离
2.461635E-4 高风险 0.83
CDM_260909-071403-568605-531926
2026-09-09T
07:14:04+0000
1.674 km
极远距离
4.675422E-6 低风险 0.48
CDM_260913-190203-568605-633921
2026-09-13T
19:02:59+0000
1.913 km
极远距离
3.234712E-6 低风险 0.45
CDM_260914-135503-568605-531921
2026-09-14T
13:55:22+0000
1.931 km
极远距离
3.161075E-6 低风险 0.45
CDM_260911-043503-568605-409123
2026-09-11T
04:35:37+0000
2.728 km
极远距离
1.5141E-6 低风险 0.39
与全量物体交会距离演化趋势
与全量物体交会风险概率演化趋势